sat.trackr.live / text

‹ back to catalog

ONEWEB-0226

NORAD 48793 · 2021-045AC

PAYLOAD ACTIVE UNKNOWN

§ Identity

Operator
Country
UK
Launch date
2021-05-28
Launch site
VOSTO
Launch vehicle
Mass (kg)
RCS (m²)

Purposes: comms

External: N2YO · Heavens-Above · Gunter

§ Orbital elements

Epoch: 2026-09-10T05:38:12.714432Z

Period
109.46 min
Inclination
87.8978°
Eccentricity
0.0002275
Mean motion
13.15548279 rev/d
Perigee alt
1,200.0 km
Apogee alt
1,203.5 km
Semi-major
7,579.9 km
B*
-2.0880e-4
RAAN
242.2396°
Arg perigee
82.9826°
Mean anomaly
277.1563°
Rev number
25,553

§ Raw data

ONEWEB-02261 48793U 21045AC  26253.23486938 -.00000066  00000+0 -20880-3 0  99982 48793  87.8978 242.2396 0002275  82.9826 277.1563 13.15548279255535

JSON: /api/v1/satellites/48793 · /tle

For live sub-satellite position, see the globe view (requires WebGL).

§ Visibility from observer

Set your observer location to see the next 7 days of passes ≥ 10°. The values pass through the URL so the page stays shareable.

No JS? Fill the form by hand. The geolocation button needs JavaScript.